EW5291 Weather Reports


Display with metric or nautical units.
time (UTC)temp
F
wind
direction
speed
MPH
gust
MPH
rain 1hr
in
rain 24hr
in
rain mn
in
humidity
%
barometer
mb
20260905005503 66 0 0.0 0.0 0.00 0.01 0.01 80 1009.8
20260905005003 66 0 0.0 0.0 0.00 0.01 0.01 80 1009.9
20260905004503 66 0 0.0 0.0 0.00 0.01 0.01 80 1009.9
20260905004003 66 0 0.0 0.0 0.00 0.01 0.01 80 1009.8
20260905003503 66 0 0.0 0.0 0.00 0.01 0.01 79 1009.7
20260905003003 66 0 0.0 0.0 0.00 0.01 0.01 79 1009.5
20260905002503 66 0 0.0 0.0 0.00 0.01 0.01 79 1009.5
20260905002003 66 0 0.0 0.0 0.00 0.01 0.01 78 1009.4
20260905001503 66 190 0.0 0.0 0.00 0.01 0.01 77 1009.3
20260905001003 67 0 0.0 0.0 0.00 0.01 0.01 77 1009.2
20260905000503 67 0 0.0 0.0 0.00 0.01 0.01 77 1009.3
20260905000003 67 190 0.0 0.0 0.00 0.01 0.01 76 1009.3
20260904235504 67 0 0.0 0.0 0.00 0.01 0.01 76 1009.2
20260904234504 68 0 0.0 0.0 0.00 0.01 0.01 74 1009.2
20260904234502 67 190 0.0 0.0 0.00 0.01 0.01 74 1009.2
20260904234004 68 0 0.0 0.0 0.00 0.01 0.01 73 1009.0
20260904233504 68 0 0.0 0.0 0.00 0.01 0.01 73 1009.0
20260904233009 68 190 0.0 0.0 0.00 0.01 0.01 73 1009.0
20260904233004 69 0 0.0 0.0 0.00 0.01 0.01 73 1009.1
20260904232003 70 0 0.0 0.0 0.00 0.01 0.01 71 1009.2
20260904231505 70 190 0.0 0.0 0.00 0.01 0.01 70 1009.1
20260904231003 70 0 0.0 0.0 0.00 0.01 0.01 70 1009.0
20260904230503 71 0 0.0 0.0 0.00 0.01 0.01 68 1009.0
20260904230003 71 190 0.0 0.0 0.00 0.01 0.01 69 1009.0
20260904225503 71 0 0.0 0.0 0.00 0.01 0.01 69 1009.0
20260904225003 72 0 0.0 0.0 0.00 0.01 0.01 68 1008.9
20260904224503 71 190 0.0 0.0 0.00 0.01 0.01 69 1008.9
20260904224004 72 0 0.0 0.0 0.00 0.01 0.01 69 1008.8
20260904223504 72 0 0.0 0.0 0.00 0.01 0.01 68 1008.7
20260904223003 72 190 0.0 0.0 0.00 0.01 0.01 68 1008.8
20260904222503 73 0 0.0 0.0 0.00 0.01 0.01 68 1008.8
20260904222004 73 0 0.0 0.0 0.00 0.01 0.01 64 1008.8
20260904221504 73 0 0.0 0.0 0.00 0.01 0.01 64 1008.7
20260904221004 73 0 0.0 0.0 0.00 0.01 0.01 67 1008.6
20260904220504 73 0 0.0 0.0 0.00 0.01 0.01 66 1008.6
20260904220112 73 190 0.0 0.0 0.00 0.01 0.01 65 1008.6
20260904220004 74 0 0.0 0.0 0.00 0.01 0.01 67 1008.6
20260904215503 74 0 0.0 0.0 0.00 0.01 0.01 65 1008.7
20260904215003 74 0 0.0 0.0 0.00 0.01 0.01 63 1008.7
20260904214504 74 190 0.0 0.0 0.00 0.01 0.01 62 1008.6
20260904214004 75 0 0.0 0.0 0.00 0.01 0.01 62 1008.6
20260904213503 75 191 0.0 1.0 0.00 0.01 0.01 63 1008.7
20260904213003 75 191 0.0 1.0 0.00 0.01 0.01 62 1008.8
20260904212504 76 191 0.0 1.0 0.00 0.01 0.01 60 1008.9
20260904211504 76 190 0.0 1.0 0.00 0.01 0.01 60 1008.9
20260904211004 77 190 0.0 1.0 0.00 0.01 0.01 59 1008.9
20260904210504 77 0 0.0 0.0 0.00 0.01 0.01 59 1008.9
20260904210003 77 190 0.0 0.0 0.00 0.01 0.01 57 1008.9
20260904205503 78 0 0.0 0.0 0.00 0.01 0.01 60 1008.9
20260904205004 78 0 0.0 0.0 0.00 0.01 0.01 55 1008.9
20260904204504 79 0 0.0 0.0 0.00 0.01 0.01 53 1008.8
20260904204502 78 190 0.0 0.0 0.00 0.01 0.01 53 1008.8
20260904204003 79 191 0.0 2.0 0.00 0.01 0.01 50 1008.8
20260904203503 80 191 0.0 2.0 0.00 0.01 0.01 47 1008.7
20260904203004 81 191 0.0 1.0 0.00 0.01 0.01 50 1008.8
20260904203002 80 190 0.0 1.0 0.00 0.01 0.01 50 1008.7
20260904202503 82 191 0.0 2.0 0.00 0.01 0.01 46 1008.8
20260904202003 82 191 0.0 2.0 0.00 0.01 0.01 47 1008.8
20260904201504 82 0 0.0 0.0 0.00 0.01 0.01 43 1008.8
20260904201502 82 190 0.0 0.0 0.00 0.01 0.01 43 1008.7
20260904201003 83 191 0.0 2.0 0.00 0.01 0.01 45 1008.8
20260904200503 83 191 0.0 2.0 0.00 0.01 0.01 48 1008.8
20260904200004 83 191 0.0 1.0 0.00 0.01 0.01 49 1008.9
20260904195003 83 0 0.0 0.0 0.00 0.01 0.01 44 1008.9
20260904194504 83 191 0.0 1.0 0.00 0.01 0.01 45 1009.0
20260904194502 82 190 0.0 1.0 0.00 0.01 0.01 45 1008.9
20260904194004 83 191 0.0 1.0 0.00 0.01 0.01 43 1008.9
20260904193503 84 190 0.0 2.0 0.00 0.01 0.01 43 1008.8
20260904193003 84 191 0.0 2.0 0.00 0.01 0.01 44 1008.8
20260904192504 84 191 0.0 2.0 0.00 0.01 0.01 40 1008.8
20260904192003 84 191 0.0 2.0 0.00 0.01 0.01 44 1008.9
20260904191503 84 191 0.0 2.0 0.00 0.01 0.01 42 1008.8
20260904191004 84 191 1.0 8.0 0.00 0.01 0.01 41 1008.8
20260904190503 84 191 1.0 8.0 0.00 0.01 0.01 44 1008.8
20260904190003 85 191 0.0 4.0 0.00 0.01 0.01 41 1008.7
20260904185504 85 0 0.0 0.0 0.00 0.01 0.01 42 1008.8
20260904185003 85 191 0.0 7.0 0.00 0.01 0.01 40 1008.9
20260904184503 84 190 0.0 7.0 0.00 0.01 0.01 42 1008.9
20260904184004 85 191 0.0 2.0 0.00 0.01 0.01 45 1009.1
20260904183503 84 191 0.0 2.0 0.00 0.01 0.01 44 1009.2
20260904183003 83 190 0.0 2.0 0.00 0.01 0.01 47 1009.2
20260904182504 84 191 0.0 5.0 0.00 0.01 0.01 44 1009.2
20260904182003 83 191 0.0 5.0 0.00 0.01 0.01 43 1009.2
20260904181510 83 190 0.0 2.0 0.00 0.01 0.01 51 1009.3
20260904181503 83 191 0.0 2.0 0.00 0.01 0.01 51 1009.2
20260904181003 83 191 0.0 2.0 0.00 0.01 0.01 49 1009.1
20260904180503 82 191 0.0 2.0 0.00 0.01 0.01 48 1009.1
20260904180009 81 190 0.0 1.0 0.00 0.01 0.01 49 1009.1
20260904180003 82 191 0.0 1.0 0.00 0.01 0.01 49 1009.1
20260904175503 82 191 0.0 5.0 0.00 0.01 0.01 49 1009.2
20260904175004 82 191 0.0 5.0 0.00 0.01 0.01 50 1009.2
20260904174511 82 190 0.0 3.0 0.00 0.01 0.01 43 1009.1
20260904174503 83 191 0.0 2.0 0.00 0.01 0.01 43 1009.2
20260904174003 82 191 0.0 4.0 0.00 0.01 0.01 52 1009.1
20260904173503 82 191 0.0 4.0 0.00 0.01 0.01 56 1009.1
20260904173006 81 190 0.0 3.0 0.00 0.01 0.01 59 1009.1
20260904173004 81 191 0.0 2.0 0.00 0.01 0.01 59 1009.1
20260904172503 81 0 0.0 0.0 0.00 0.01 0.01 54 1009.2
20260904172003 81 0 0.0 0.0 0.00 0.01 0.01 55 1009.4
20260904171504 81 191 0.0 3.0 0.00 0.01 0.01 52 1009.3
20260904171502 81 190 0.0 0.0 0.00 0.01 0.01 52 1009.3
20260904171003 81 191 0.0 3.0 0.00 0.01 0.01 50 1009.4
20260904170503 81 191 0.0 3.0 0.00 0.01 0.01 57 1009.4
20260904170003 80 191 0.0 2.0 0.00 0.01 0.01 58 1009.5
20260904165503 80 0 0.0 0.0 0.00 0.01 0.01 56 1009.5
20260904165004 81 0 0.0 0.0 0.00 0.01 0.01 55 1009.6
20260904164503 82 0 0.0 0.0 0.00 0.01 0.01 53 1009.6
20260904164003 82 191 0.0 1.0 0.00 0.01 0.01 55 1009.6
20260904163503 82 191 0.0 4.0 0.00 0.01 0.01 54 1009.6
20260904163008 82 190 0.0 4.0 0.00 0.01 0.01 49 1009.6
20260904163004 82 191 0.0 4.0 0.00 0.01 0.01 49 1009.6
20260904162503 82 191 0.0 3.0 0.00 0.01 0.01 54 1009.6
20260904162003 82 191 0.0 3.0 0.00 0.01 0.01 52 1009.7
20260904161503 82 191 0.0 4.0 0.00 0.01 0.01 53 1009.9
20260904160503 82 191 0.0 4.0 0.00 0.01 0.01 52 1010.1
20260904160003 81 191 1.0 4.0 0.00 0.01 0.01 53 1009.9
20260904155503 81 191 0.0 4.0 0.01 0.01 0.01 53 1009.9
20260904155004 81 190 0.0 4.0 0.01 0.01 0.01 56 1010.0
20260904154507 80 190 0.0 11.0 0.01 0.01 0.01 57 1010.1
20260904153503 81 191 0.0 2.0 0.01 0.01 0.01 55 1010.3
20260904153003 81 191 0.0 5.0 0.01 0.01 0.01 57 1010.3
20260904152504 80 191 1.0 5.0 0.01 0.01 0.01 57 1010.3
20260904152004 80 190 0.0 2.0 0.01 0.01 0.01 58 1010.3
20260904151504 80 191 0.0 2.0 0.01 0.01 0.01 60 1010.3
20260904151004 80 191 0.0 2.0 0.01 0.01 0.01 58 1010.3
20260904150504 80 0 0.0 0.0 0.01 0.01 0.01 60 1010.3
20260904150004 79 190 0.0 2.0 0.01 0.01 0.01 62 1010.4
20260904145503 79 191 0.0 4.0 0.00 0.00 0.00 61 1010.3
20260904144503 79 191 0.0 3.0 0.00 0.00 0.00 63 1010.3
20260904144003 78 191 0.0 3.0 0.00 0.00 0.00 63 1010.3
20260904143504 78 191 0.0 3.0 0.00 0.00 0.00 64 1010.4
20260904143010 77 190 0.0 3.0 0.00 0.00 0.00 66 1010.4
20260904143004 77 190 0.0 3.0 0.00 0.00 0.00 66 1010.5
20260904142504 77 191 0.0 3.0 0.00 0.00 0.00 65 1010.5
20260904142004 77 191 0.0 3.0 0.00 0.00 0.00 66 1010.5
20260904141504 76 0 0.0 0.0 0.00 0.00 0.00 66 1010.5
20260904141502 76 190 0.0 0.0 0.00 0.00 0.00 66 1010.5
20260904141003 76 0 0.0 0.0 0.00 0.00 0.00 71 1010.6
20260904140503 75 191 0.0 2.0 0.00 0.00 0.00 69 1010.5
20260904140003 74 190 0.0 2.0 0.00 0.00 0.00 73 1010.6
20260904135503 74 191 0.0 2.0 0.00 0.00 0.00 77 1010.6
20260904135003 74 191 0.0 2.0 0.00 0.00 0.00 77 1010.5
20260904134503 73 0 0.0 0.0 0.00 0.00 0.00 77 1010.6
20260904134004 73 0 0.0 0.0 0.00 0.00 0.00 79 1010.5
20260904133504 72 0 0.0 0.0 0.00 0.00 0.00 81 1010.6
20260904133004 72 0 0.0 0.0 0.00 0.00 0.00 82 1010.5
20260904133002 71 190 0.0 0.0 0.00 0.00 0.00 82 1010.5
20260904132003 71 190 0.0 1.0 0.00 0.00 0.00 82 1010.3
20260904131504 71 190 0.0 0.0 0.00 0.00 0.00 82 1010.4
20260904131003 71 0 0.0 0.0 0.00 0.00 0.00 82 1010.4
20260904130503 70 0 0.0 0.0 0.00 0.00 0.00 82 1010.3
20260904130004 69 190 0.0 0.0 0.00 0.00 0.00 82 1010.3
20260904125503 69 0 0.0 0.0 0.00 0.00 0.00 82 1010.3
20260904125003 69 0 0.0 0.0 0.00 0.00 0.00 82 1010.3
20260904124504 68 0 0.0 0.0 0.00 0.00 0.00 82 1010.2
20260904123011 67 190 0.0 0.0 0.00 0.00 0.00 82 1010.4
20260904121509 65 190 0.0 0.0 0.00 0.00 0.00 82 1010.4
20260904120014 65 190 0.0 0.0 0.00 0.00 0.00 82 1010.4
20260904114509 64 190 0.0 0.0 0.00 0.00 0.00 82 1010.2
20260904113007 64 190 0.0 0.0 0.00 0.00 0.00 82 1010.1
20260904111511 64 190 0.0 0.0 0.00 0.00 0.00 82 1009.9
20260904110006 64 190 0.0 0.0 0.00 0.00 0.00 82 1009.9
20260904104512 63 190 0.0 0.0 0.00 0.00 0.00 82 1010.0
20260904103006 64 190 0.0 0.0 0.00 0.00 0.00 82 1009.9
20260904101503 64 190 0.0 0.0 0.00 0.00 0.00 82 1009.8
20260904100004 64 190 0.0 0.0 0.00 0.01 0.00 82 1009.8
20260904094506 64 190 0.0 0.0 0.00 0.01 0.00 82 1009.7
20260904093001 64 190 0.0 0.0 0.00 0.01 0.00 82 1009.7
20260904091600 64 190 0.0 0.0 0.00 0.01 0.00 82 1009.7
20260904090059 65 190 0.0 0.0 0.00 0.01 0.00 82 1009.6
20260904084559 65 190 0.0 0.0 0.00 0.01 0.00 82 1009.5
20260904083058 65 190 0.0 0.0 0.00 0.01 0.00 82 1009.4
20260904081636 64 190 0.0 0.0 0.00 0.01 0.00 82 1009.4
20260904080056 64 190 0.0 0.0 0.00 0.02 0.00 82 1009.4
20260904074607 64 190 0.0 0.0 0.00 0.02 0.00 82 1009.5
20260904073103 64 190 0.0 0.0 0.00 0.02 0.00 82 1009.9
20260904071549 64 190 0.0 0.0 0.00 0.02 0.00 82 1010.2
20260904070104 64 190 0.0 0.0 0.00 0.06 0.00 82 1010.2
20260904064548 64 190 0.0 0.0 0.00 0.06 0.00 82 1010.2
20260904063054 64 190 0.0 0.0 0.00 0.06 0.00 82 1010.2
20260904061545 64 190 0.0 0.0 0.00 0.06 0.00 82 1010.2
20260904060044 65 190 0.0 0.0 0.00 0.06 0.00 82 1010.4
20260904054541 65 190 0.0 0.0 0.00 0.06 0.00 82 1010.5
20260904053041 65 190 0.0 0.0 0.00 0.06 0.00 82 1010.7
20260904051538 65 190 0.0 0.0 0.00 0.06 0.00 82 1010.9
20260904050037 65 190 0.0 0.0 0.00 0.06 0.00 82 1011.1
20260904044534 65 190 0.0 0.0 0.00 0.06 0.00 82 1011.1
20260904043035 66 190 0.0 0.0 0.00 0.06 0.00 82 1011.2
20260904041530 66 190 0.0 0.0 0.00 0.06 0.00 82 1011.1
20260904040029 66 190 0.0 0.0 0.00 0.06 0.06 82 1011.2
20260904034531 67 190 0.0 0.0 0.00 0.06 0.06 82 1011.4
20260904033006 67 190 0.0 0.0 0.00 0.06 0.06 82 1011.5
20260904032506 67 0 0.0 0.0 0.00 0.06 0.06 82 1011.5
20260904031506 68 0 0.0 0.0 0.00 0.06 0.06 82 1011.4
20260904031006 68 0 0.0 0.0 0.00 0.06 0.06 82 1011.4
20260904030506 68 0 0.0 0.0 0.00 0.06 0.06 82 1011.5
20260904030006 68 0 0.0 0.0 0.00 0.06 0.06 82 1011.4
20260904030004 67 190 0.0 0.0 0.00 0.06 0.06 82 1011.5
20260904025506 68 0 0.0 0.0 0.00 0.06 0.06 82 1011.5
20260904024505 68 190 0.0 0.0 0.00 0.06 0.06 82 1011.7
20260904024006 68 0 0.0 0.0 0.00 0.06 0.06 82 1011.5
20260904023506 68 0 0.0 0.0 0.00 0.06 0.06 82 1011.6
20260904023006 68 0 0.0 0.0 0.00 0.06 0.06 82 1011.5
20260904022506 68 0 0.0 0.0 0.00 0.06 0.06 82 1011.6
20260904022006 69 0 0.0 0.0 0.00 0.06 0.06 82 1011.5
20260904021506 69 0 0.0 0.0 0.00 0.06 0.06 82 1011.5
20260904021006 69 0 0.0 0.0 0.00 0.06 0.06 82 1011.6
20260904020006 68 190 0.0 0.0 0.00 0.06 0.06 82 1011.9
20260904015505 69 0 0.0 0.0 0.00 0.06 0.06 82 1011.9
20260904015005 69 0 0.0 0.0 0.00 0.06 0.06 82 1011.8
20260904014505 69 190 0.0 0.0 0.00 0.06 0.06 82 1011.9
20260904014006 70 0 0.0 0.0 0.00 0.06 0.06 82 1011.7
20260904013506 70 0 0.0 0.0 0.00 0.06 0.06 82 1011.7
20260904013009 69 190 0.0 0.0 0.00 0.06 0.06 82 1011.9
20260904013005 70 0 0.0 0.0 0.00 0.06 0.06 82 1011.8
20260904012506 70 0 0.0 0.0 0.00 0.06 0.06 82 1011.8
20260904012006 70 0 0.0 0.0 0.00 0.06 0.06 82 1011.9
20260904011506 70 0 0.0 0.0 0.00 0.06 0.06 82 1011.9
20260904011504 70 190 0.0 0.0 0.00 0.06 0.06 82 1011.9
20260904011006 70 0 0.0 0.0 0.00 0.06 0.06 82 1011.9
20260904010506 70 0 0.0 0.0 0.00 0.06 0.06 82 1011.8
20260904010006 71 0 0.0 0.0 0.00 0.06 0.06 82 1011.9